www.pogodaiklimat.ru

Погода и климат >> Архив погоды >> Россия >> Якутия >> Шелагонцы


АРХИВ ПОГОДЫ в Шелагонцах

Время (UTC), дата Ветер
(напр.,м/с)
 
Видим.   Явления Облачность Т
(С)
Тd
(С)
f
(%)
Тe
(С)
Тes
(С)
Комфортность P
(гПа)
Po
(гПа)
Тmin
(С)
Tmax
(С)
R
(мм)
R24
(мм)
S
(см)
03 13.06 СЗ 3 50 км 3/3 1000 м
[Cu hum]
+8.8 -2.7 44 +7 +13 1014.9 986.4
06 13.06 штиль 0 50 км ясно +11.4 -2.2 39 +11 +26 опасность
простуды
1014.2 986.0
09 13.06 З 2 50 км ясно +13.7 -3.2 31 +14 +19 1013.2 985.2
12 13.06 В 3 50 км 3/0
[Ci fib]
+14.2 +0.9 40 +14 +14 1013.6 985.7 +14.6
15 13.06 ЮВ 1 50 км 4/3 600 м
[Sc Ci fib]
+11.0 +0.6 49 +11 +11 1013.8 985.6
18 13.06 ЮВ 1 50 км 4/3 600 м
[Sc Ci fib]
+3.4 +1.3 86 +2 +2 1013.5 984.5
21 13.06 СВ 3 50 км 4/0
[Ac lent]
+7.8 +1.1 63 +5 +6 1012.6 984.1
00 14.06 СВ 3 50 км 6/0
[Ac lent Ci fib]
+14.4 +2.8 46 +14 +17 1011.3 983.4 +1.8
03 14.06 СВ 5 50 км ясно +17.6 +3.5 39 +17 +23 1009.1 981.7
06 14.06 Ю 5 50 км 3/0
[Ac trans]
+20.4 +2.7 31 +21 +25 комфорт 1007.6 980.4
09 14.06 Ю 5 50 км 6/0
[Ac trans]
+22.0 +3.0 29 +22 +24 комфорт 1005.7 978.8
12 14.06 Ю 3 50 км 3/0
[Ci fib]
+21.6 +4.2 32 +22 +23 комфорт 1005.0 978.1 +22.0
15 14.06 штиль 0 50 км 3/0
[Ac trans]
+17.9 +5.6 44 +18 +18 1007.6 977.3
18 14.06 В 3 50 км 4/0
[Ac lent Ci fib]
+12.4 +5.6 63 +11 +11 1005.2 977.3
21 14.06 В 1 50 км 3/0
[Ac lent Ci fib]
+13.9 +5.9 58 +14 +16 1004.7 977.0
00 15.06 ЮВ 1 50 км 3/0
[Ac lent]
+19.3 +7.1 45 +21 +26 комфорт 1003.9 976.7 +12.4
03 15.06 Ю 5 50 км 8/3 1000 м
[Cu hum Ac lent]
+24.4 +8.1 35 +25 +27 комфорт 1001.7 975.2
06 15.06 Ю 5 50 км 8/8 600 м
[Sc]
+27.0 +7.9 30 +27 +28 жарко 1001.1 974.7
09 15.06 ЮЗ 5 20 км слаб. ливневой дождь 9/9 600 м
[Cb cap]
+20.4 +13.2 63 +23 +23 комфорт 1001.9 975.0
12 15.06 З 7 20 км слаб. ливневой дождь 8/8 600 м
[Cb cap]
+21.6 +13.7 61 +24 +24 комфорт 1002.9 976.0 +27.0 0.3
15 15.06 штиль 0 50 км {ливн. осадки} 8/8 600 м
[Sc]
+15.5 +14.6 94 +15 +15 1003.5 976.1
18 15.06 ЮЗ 1 20 км слаб. ливневой дождь 9/9 600 м
[Cb cap]
+14.2 +13.3 94 +14 +14 1005.4 977.8
21 15.06 штиль 0 20 км слаб. ливневой дождь 10/10 600 м
[Cb cap]
+14.1 +13.9 99 +14 +14 1005.9 978.3
00 16.06 СЗ 1 20 км слаб. ливневой дождь 10/10 600 м
[Cb cap]
+14.1 +13.4 96 +14 +14 1007.7 980.0 +14.0 3
03 16.06 СЗ 1 50 км {ливн. осадки} 10/10 600 м
[Cb cap]
+14.8 +13.4 91 +15 +15 1009.1 981.4
06 16.06 ЮЗ 3 50 км {ливн. осадки} 8/8 600 м
[Cb cap]
+17.8 +14.5 81 +18 +20 1010.1 982.8
09 16.06 С 1 50 км 8/4 600 м
[Sc Ci fib]
+21.0 +9.7 48 +24 +27 комфорт 1010.9 983.7
12 16.06 СВ 3 50 км 4/4 600 м
[Cb cap]
+21.2 +10.0 49 +23 +23 комфорт 1011.8 984.7 +22.7 0.0
15 16.06 штиль 0 50 км 8/8 600 м
[Sc]
+17.4 +8.2 55 +17 +17 1013.3 985.7
18 16.06 штиль 0 50 км 4/4 600 м
[Sc]
+10.1 +6.9 81 +9 +9 1014.6 986.3
21 16.06 штиль 0 50 км 3/3 600 м
[Sc]
+10.7 +8.9 89 +10 +11 1015.1 986.9
00 17.06 ЮВ 3 50 км 10/10 600 м
[Sc]
+14.8 +12.2 84 +14 +14 1014.7 986.9 +10.0
03 17.06 В 3 50 км 4/0
[Ci fib]
+19.4 +11.4 60 +21 +29 комфорт 1013.4 986.0
06 17.06 В 3 50 км 4/0
[Ci fib]
+20.4 +17.5 83 +24 +32 комфорт 1011.3 984.6
09 17.06 Ю 3 50 км ясно +20.4 +17.5 83 +24 +29 комфорт 1009.3 982.6
12 17.06 ЮВ 3 50 км 3/0
[Ci fib]
+28.9 +11.5 34 +30 +30 жарко 1007.5 981.2 +28.9
15 17.06 штиль 0 50 км 6/0
[Ci fib]
+15.6 +12.1 80 +15 +15 1008.7 981.1
18 17.06 штиль 0 50 км 3/3 600 м
[Sc]
+11.2 +9.6 90 +11 +11 1009.2 981.2
21 17.06 В 1 50 км 8/8 600 м
[Sc]
+12.4 +9.7 84 +12 +13 1008.8 980.9
00 18.06 ЮВ 1 50 км 8/6 600 м
[Sc Ci fib]
+23.6 +10.2 43 +25 +27 комфорт 1007.5 979.7 +11.1
03 18.06 ЮВ 5 50 км 8/8 600 м
[Sc]
+27.1 +6.7 27 +26 +28 жарко 1004.9 978.4
06 18.06 Ю 5 50 км 8/6 600 м
[Sc Ci fib]
+28.0 +7.1 27 +27 +29 жарко 1003.7 977.3
09 18.06 ЮЗ 1 50 км 10/10 600 м
[Sc]
+26.8 +6.2 27 +26 +26 жарко 1002.6 976.2
12 18.06 З 1 50 км 8/4 600 м
[Sc Ci fib]
+25.2 +7.2 32 +25 +26 комфорт 1003.6 976.9 +28.1
15 18.06 ЮЗ 1 50 км 10/10 600 м
[Sc]
+19.8 +17.0 84 +23 +23 комфорт 1004.9 977.9
18 18.06 ЮЗ 1 50 км 10/10 600 м
[Sc]
+17.0 +14.4 85 +18 +18 1006.2 978.9
21 18.06 З 3 50 км 10/10 600 м
[Sc]
+16.2 +11.8 75 +16 +16 1008.6 981.1
00 19.06 СЗ 5 50 км 8/8 600 м
[Sc]
+16.2 +5.1 48 +15 +16 1011.3 983.6 +15.2
03 19.06 З 3 50 км ясно +19.4 +3.9 36 +20 +29 1012.2 984.8
06 19.06 З 5 50 км ясно +21.1 +3.9 32 +21 +27 комфорт 1012.0 984.8
09 19.06 З 3 50 км 1/0
[Ac lent]
+22.7 +2.6 27 +22 +27 комфорт 1011.7 984.6
12 19.06 С 5 50 км ясно +22.2 +3.3 29 +22 +23 комфорт 1012.2 985.1 +23.0
15 19.06 штиль 0 50 км 3/0
[Ac trans]
+15.0 +9.8 71 +15 +15 1014.6 986.8
18 19.06 З 3 50 км ясно +6.9 +5.1 88 +4 +4 1015.7 987.1
21 19.06 З 1 50 км ясно +17.4 +15.4 88 +18 +20 1014.9 987.3
00 20.06 штиль 0 50 км 3/0
[Ci fib]
+15.6 +7.8 60 +16 +23 1015.2 987.4 +6.7

 

Местоположение метеостанции Шелагонцы (Якутия, Россия): широта 66.25 долгота 114.20 высота над уровнем моря 236 м.

В архиве по умолчанию представлена погода в Шелагонцах за последнюю неделю. Архивные данные за месяц целиком и за предыдущие месяцы, начиная с января 2011 года, Вы можете получить, выбрав интересующий диапазон дат из раскрывающегося списка и нажав кнопку "Ввод!".


*Определитесь, кто Вы:
робот инопланетянин человек

Внимание! Время в таблицах - всемирное. Для получения местного времени необходимо прибавить поправку, которая равна 9 ч.

Смотрите также архив погоды в соседних городах и на ближайших метеорологических станциях:

Погода в Полярном (Якутия, Россия) (96 км)
Погода в Айхале (Якутия, Россия) (129 км)
Погода в Эйке (Якутия, Россия) (146 км)
Погода в Хабардино (Якутия, Россия) (200 км)
Погода в Чумпуруке (Якутия, Россия) (257 км)
Погода в Оленеке (Якутия, Россия) (262 км)
Погода в Ярольине (Якутия, Россия) (269 км)
Погода в Сухане (Якутия, Россия) (316 км)
Погода в Чернышевском (Якутия, Россия) (368 км)
Погода в Нюрбе (Якутия, Россия) (383 км)

Пояснения к столбцам:

Ветер - указаны скорость ветра в м/с - средняя за 10 мин, порывы в срок и между сроками (в фигурных скобках) и направление, откуда дует ветер: С - северный, СВ - северо-восточный, В - восточный, ЮВ - юго-восточный, Ю - южный, ЮЗ - юго-западный, З - западный, СЗ - северо-западный.
Видимость - горизонтальная дальность видимости в метрах или километрах. При видимости от 1 до 10 км при отсутствии осадков обычно наблюдается дымка, при ухудшении видимости до 1 км и менее - туман. В сухую погоду видимость может ухудшаться дымом, пылью или мглою.
Явления - указаны атмосферные явления, наблюдавшиеся в срок или в последний час перед сроком; фигурными скобками обозначены явления, наблюдавшиеся между сроками (за 1-3 часа до срока); квадратными скобками обозначены град или гололедные отложения с указанием их диаметра в мм.
Облачность - указаны через наклонную черту общая и нижняя облачность в баллах и высота нижней границы облаков в метрах; квадратными скобками обозначены формы облаков: Ci - перистые, Cs - перисто-слоистые, Cc - перисто-кучевые, Ac - высококучевые, As - высокослоистые, Sc - слоисто-кучевые, Ns - слоисто-дождевые, Cu - кучевые, Cb - кучево-дождевые. Подробнее классификацию облаков см. в Атласе облаков (PDF).
T - Температура воздуха - температура, измеренная на высоте 2 м над землей.
Td - Температура точки росы - температура, при понижении до которой содержащийся в воздухе водяной пар достигнет насыщения.
f - Относительная влажность воздуха - влажноcть воздуха, измеренная на высоте 2 м над землей.
Te - Эффективная температура - температура, которую ощущает одетый по сезону человек в тени. Характеристика душности погоды. При расчете учитывается влияние влажности воздуха и скорости ветра на теплоощущения человека.
Tes - Эффективная температура на солнце - температура, которую ощущает человек, с поправкой на солнечный нагрев. Характеристика знойности погоды. Зависит от высоты солнца над горизонтом, облачности и скорости ветра. Ночью, в пасмурную погоду, а также при ветре 12 м/с и более поправка равна нулю.
P - Атмосферное давление - приведенное к уровню моря атмосферное давление.
Po - Атмосферное давление - измеренное на уровне метеостанции атмосферное давление.
Tmin - Минимальная температура - минимум температуры воздуха на высоте 2 м над землей.
Tmax - Максимальная температура - максимум температуры воздуха на высоте 2 м над землей.
R - Количество осадков - Количество выпавших осадков за период времени, мм. При наведении курсора мыши на число - период времени, за который выпало указанное количество осадков.
R24 - Количество осадков - Количество выпавших осадков за 24 часа, мм.
S - Снежный покров - Высота снежного покрова, см. При наведении курсора мыши на число - состояние снежного покрова и степень покрытия местности в баллах.